Tucson, AZ

12:25 PM MST on October 18, 2019 (GMT -0700)
Tucson International

Weather History for KTUS - August, 2019

Change the Weather History Date:

Thursday, August 29, 2019

  Actual Average Record
Temperature  
Mean Temperature 85 °F 85 °F  
Max Temperature 97 °F 98 °F 107 °F (1985)
Min Temperature 73 °F 73 °F 58 °F (1917)
Degree Days  
Heating Degree Days 0 0  
Month to date heating degree days 0 0  
Since 1 June heating degree days 0 0  
Since 1 July heating degree days 0 0  
Cooling Degree Days 20 20  
Month to date cooling degree days 710 586  
Year to date cooling degree days 2487 2365  
Since 1 June cooling degree days 2115 1863  
Growing Degree Days 35 (Base 50)    
Moisture  
Dew Point 62 °F    
Average Humidity 48    
Maximum Humidity 79    
Minimum Humidity 21    
Precipitation  
Precipitation 0.00 in 0.06 in 1.73 in (1910)
Month to date precipitation 1.54 2.26  
Year to date precipitation 7.64 7.78  
Sea Level Pressure  
Sea Level Pressure 29.90 in    
Wind  
Wind Speed 6 mph (SW)    
Max Wind Speed 20 mph    
Max Gust Speed 25 mph    
Visibility 10 miles    
Events      
T = Trace of Precipitation, MM = Missing Value Source: NWS Daily Summary

Daily Weather History Graph

Daily Weather History Graph

Search for Another Location

Airport or City:

Astronomy

Aug. 29, 2019 Rise Set
Actual Time 5:57 AM MST 6:51 PM MST
Civil Twilight 5:31 AM MST 7:16 PM MST
Nautical Twilight 5:02 AM MST 7:46 PM MST
Astronomical Twilight 4:31 AM MST 8:16 PM MST
Moon 4:54 AM MST (8/29) 6:46 PM MST (8/29)
Length of Visible Light 13h 44m
Length of Day
12h 54m
Waning Crescent, 1% of the Moon is Illuminated
Aug 29
Waning Crescent
Aug 30
New
Sep 5
First Quarter
Sep 13
Full
Sep 21
Last Quarter

Hourly Weather History & Observations

Time (MST) Temp. Heat Index Dew Point Humidity Pressure Visibility Wind Dir Wind Speed Gust Speed Precip Events Conditions
12:53 AM 75.9 °F - 64.9 °F 69% 29.96 in 10.0 mi East 6.9 mph - N/A   Clear
1:53 AM 78.1 °F - 66.0 °F 66% 29.92 in 10.0 mi ENE 4.6 mph - N/A   Clear
2:53 AM 75.0 °F - 66.9 °F 76% 29.89 in 10.0 mi South 9.2 mph - N/A   Clear
3:53 AM 75.9 °F - 66.9 °F 74% 29.85 in 10.0 mi SSE 8.1 mph - N/A   Clear
4:53 AM 75.0 °F - 68.0 °F 79% 29.92 in 10.0 mi Calm Calm - N/A   Clear
5:07 AM 75.0 °F - 66.9 °F 76% 30.06 in 10.0 mi Calm Calm - N/A   Clear
5:53 AM 75.0 °F - 66.9 °F 76% 29.95 in 10.0 mi Calm Calm - N/A   Clear
6:53 AM 73.9 °F - 66.9 °F 79% 29.98 in 10.0 mi South 4.6 mph - N/A   Clear
7:53 AM 77.0 °F - 66.0 °F 69% 29.99 in 10.0 mi SSE 4.6 mph - N/A   Clear
8:53 AM 81.0 °F 83.0 °F 66.0 °F 60% 29.99 in 10.0 mi ESE 3.5 mph - N/A   Clear
9:53 AM 84.9 °F 86.1 °F 64.0 °F 49% 29.97 in 10.0 mi Calm Calm - N/A   Clear
10:53 AM 88.0 °F 87.9 °F 61.0 °F 40% 29.96 in 10.0 mi Calm Calm - N/A   Clear
11:53 AM 90.0 °F 89.7 °F 60.1 °F 37% 29.94 in 10.0 mi NW 4.6 mph - N/A   Clear
12:53 PM 93.0 °F 92.0 °F 57.9 °F 31% 29.91 in 10.0 mi West 5.8 mph - N/A   Clear
1:53 PM 93.9 °F 93.2 °F 59.0 °F 31% 29.88 in 10.0 mi West 8.1 mph - N/A   Clear
2:53 PM 96.1 °F 96.0 °F 60.1 °F 30% 29.85 in 10.0 mi WNW 6.9 mph - N/A   Clear
3:53 PM 97.0 °F 96.1 °F 57.9 °F 27% 29.81 in 10.0 mi West 9.2 mph - N/A   Clear
4:53 PM 96.1 °F 96.0 °F 60.1 °F 30% 29.81 in 10.0 mi West 16.1 mph 20.7 mph N/A   Clear
5:53 PM 96.1 °F 95.6 °F 59.0 °F 29% 29.82 in 10.0 mi West 9.2 mph 19.6 mph N/A   Clear
6:53 PM 93.9 °F 92.6 °F 57.0 °F 29% 29.84 in 10.0 mi WNW 6.9 mph - N/A   Clear
7:53 PM 91.9 °F 90.6 °F 57.0 °F 31% 29.85 in 10.0 mi NW 4.6 mph - N/A   Clear
8:53 PM 89.1 °F 88.2 °F 59.0 °F 36% 29.86 in 10.0 mi WNW 3.5 mph - N/A   Clear
9:53 PM 87.1 °F 87.0 °F 61.0 °F 41% 29.87 in 10.0 mi South 6.9 mph - N/A   Clear
10:53 PM 86.0 °F 85.4 °F 59.0 °F 40% 29.88 in 10.0 mi SE 15.0 mph 25.3 mph N/A   Clear
11:53 PM 84.9 °F 84.2 °F 57.9 °F 40% 29.87 in 10.0 mi ESE 6.9 mph - N/A   Clear